"startDT [UTC]","vpos","CH4 [ppm]","stdev(CH4) [ppm]","CO2 [ppm]","stdev(CO2) [ppm]","H2O_reported [%]","stdev(H2O_reported)","CavityPressure [torr]","CavityTemp [C]","OutletValve","CH4_dry [ppm]","CO2_dry [ppm]","DasTemp [C]","EtalonTemp [C]","WarmBoxTemp [C]","MPVPosition","T_ECpre [C]","T_EC1 [C]","T_EC2 [C]","p_inlet [hPa]","p_in [hPa]","p_out [hPa]","T_inlet [C]","RH_inlet [%]","dwpt_inlet [C]","T_vent [C]","RH_vent [%]","dwpt_vent [C]","flow_vent [l min-1]","flow_inlet [l min-1]","dwpt_sample [C]","T_room [C]"
2015-01-23 00:00:00,0.0,1.94811,0.00030,405.677,0.029,0.0879,0.0015,139.999,45.000,28757.82606,1.94978,406.107,33.499,45.068,45.000,0.00,0.09,-272.69,-272.73,-9,165,-1,20.3,2.9,-26.6,20.3,4.3,-22.3,5.73,2.46,-17.4,24.9
2015-01-23 00:01:00,0.0,1.94838,0.00032,405.644,0.035,0.0874,0.0019,140.001,45.000,28757.14500,1.95007,406.070,33.499,45.067,45.000,0.00,0.09,-272.69,-272.75,-8,165,-1,20.3,2.9,-26.7,20.3,4.3,-22.3,5.73,2.50,-17.4,24.9
2015-01-23 00:02:00,0.0,1.94749,0.00062,405.639,0.040,0.0869,0.0011,139.999,45.000,28757.07862,1.94917,406.065,33.500,45.067,45.000,0.00,0.09,-272.68,-272.76,-8,164,-1,20.3,2.9,-26.7,20.3,4.3,-22.3,5.73,2.29,-17.4,24.9
2015-01-23 00:03:00,0.0,1.94748,0.00037,405.640,0.031,0.0870,0.0016,140.001,45.000,28759.31762,1.94915,406.064,33.498,45.067,45.000,0.00,0.09,-272.68,-272.75,-8,164,-1,20.3,2.9,-26.7,20.3,4.3,-22.3,5.73,2.18,-17.4,24.9
2015-01-23 00:04:00,0.0,1.94743,0.00035,405.656,0.034,0.0874,0.0019,139.999,45.000,28757.02134,1.94911,406.083,33.485,45.067,45.000,0.00,0.09,-272.70,-272.74,-9,164,-1,20.3,2.9,-26.6,20.3,4.3,-22.3,5.73,2.36,-17.4,24.9
2015-01-23 00:05:00,0.0,1.94743,0.00044,405.661,0.029,0.0878,0.0018,140.001,45.000,28757.58361,1.94912,406.091,33.497,45.067,45.000,0.00,0.09,-272.70,-272.75,-9,165,-1,20.3,2.9,-26.6,20.2,4.3,-22.3,5.73,2.57,-17.4,24.9
2015-01-23 00:06:00,0.0,1.94739,0.00029,405.630,0.038,0.0879,0.0016,139.999,45.000,28758.67751,1.94908,406.057,33.499,45.067,45.000,0.00,0.09,-272.68,-272.76,-8,165,-1,20.3,2.9,-26.5,20.3,4.3,-22.3,5.73,2.43,-17.4,24.9
2015-01-23 00:07:00,0.0,1.94745,0.00039,405.625,0.026,0.0890,0.0012,140.000,45.000,28757.09863,1.94919,406.061,33.500,45.067,45.000,0.00,0.09,-272.67,-272.75,-8,165,-1,20.3,3.0,-26.4,20.2,4.3,-22.3,5.73,2.18,-17.4,25.0
2015-01-23 00:08:00,0.0,1.94682,0.00041,405.618,0.022,0.0888,0.0018,140.001,45.000,28762.35853,1.94853,406.052,33.497,45.067,45.000,0.00,0.09,-272.71,-272.73,-8,164,-1,20.3,3.0,-26.4,20.2,4.3,-22.3,5.73,2.29,-17.4,25.0
2015-01-23 00:09:00,0.0,1.94675,0.00033,405.617,0.041,0.0907,0.0017,140.001,45.000,28763.74400,1.94847,406.058,33.498,45.067,45.000,0.00,0.09,-272.71,-272.75,-8,165,-1,20.3,3.0,-26.4,20.2,4.3,-22.3,5.73,2.51,-17.4,25.0
2015-01-23 00:10:00,0.0,1.94654,0.00042,405.638,0.028,0.0897,0.0020,140.001,45.000,28764.79536,1.94827,406.077,33.492,45.068,45.000,0.00,0.09,-272.68,-272.74,-9,165,-1,20.3,3.0,-26.4,20.2,4.3,-22.3,5.73,2.45,-17.4,24.9
2015-01-23 00:11:00,0.0,1.94747,0.00061,405.616,0.027,0.0886,0.0009,140.001,45.000,28766.21014,1.94910,406.049,33.495,45.068,45.000,0.00,0.09,-272.68,-272.76,-9,165,-1,20.3,2.9,-26.5,20.2,4.3,-22.3,5.73,2.22,-17.4,24.9
2015-01-23 00:12:00,0.0,1.94870,0.00047,405.653,0.027,0.0866,0.0015,140.000,45.000,28763.31099,1.95037,406.076,33.496,45.068,45.000,0.00,0.09,-272.70,-272.75,-8,166,-1,20.3,2.9,-26.7,20.2,4.3,-22.3,5.73,2.23,-17.4,24.9
2015-01-23 00:13:00,0.0,1.94809,0.00030,405.633,0.030,0.0854,0.0016,140.001,45.000,28762.73013,1.94974,406.050,33.494,45.067,45.000,0.00,0.09,-272.70,-272.73,-8,165,-1,20.2,2.9,-26.9,20.2,4.3,-22.3,5.73,2.48,-17.4,24.9
2015-01-23 00:14:00,0.0,1.94772,0.00065,405.701,0.042,0.0851,0.0025,139.996,45.000,28759.74805,1.94934,406.116,33.494,45.067,45.000,0.00,0.09,-272.68,-272.75,-8,165,-1,20.2,2.8,-27.0,20.2,4.3,-22.3,5.73,2.49,-17.4,24.9
2015-01-23 00:15:00,0.0,1.94763,0.00032,405.727,0.036,0.0841,0.0013,139.998,45.000,28756.52631,1.94927,406.137,33.464,45.068,45.000,0.00,0.09,-272.68,-272.77,-9,164,-1,20.2,2.8,-27.0,20.2,4.3,-22.3,5.73,2.25,-17.4,24.9
2015-01-23 00:16:00,0.0,1.94805,0.00035,405.735,0.032,0.0848,0.0018,140.001,45.000,28760.67435,1.94964,406.150,33.453,45.068,45.000,0.00,0.09,-272.69,-272.75,-9,165,-1,20.2,2.8,-26.9,20.2,4.3,-22.3,5.73,2.21,-17.4,24.9
2015-01-23 00:17:00,0.0,1.94830,0.00040,405.728,0.036,0.0830,0.0017,140.000,45.000,28766.35336,1.94989,406.132,33.460,45.068,45.000,0.00,0.09,-272.70,-272.74,-8,166,-1,20.2,2.8,-27.1,20.2,4.3,-22.3,5.73,2.43,-17.4,24.8
2015-01-23 00:18:00,0.0,1.95217,0.00205,405.786,0.034,0.0828,0.0014,139.997,45.000,28757.58106,1.95359,406.190,33.477,45.068,45.000,0.00,0.09,-272.69,-272.75,-8,165,-1,20.2,2.8,-27.2,20.2,4.3,-22.3,5.73,2.51,-17.4,24.8
2015-01-23 00:19:00,0.0,1.95306,0.00038,405.765,0.033,0.0815,0.0011,140.000,45.000,28757.73598,1.95462,406.163,33.482,45.068,45.000,0.00,0.09,-272.68,-272.76,-8,165,-1,20.2,2.7,-27.4,20.2,4.3,-22.3,5.73,2.32,-17.4,24.9
2015-01-23 00:20:00,0.0,1.95360,0.00053,405.777,0.030,0.0810,0.0016,139.998,45.000,28758.77913,1.95518,406.173,33.444,45.067,45.000,0.00,0.09,-272.69,-272.75,-8,165,-1,20.2,2.7,-27.4,20.2,4.3,-22.3,5.73,2.18,-17.4,24.8
2015-01-23 00:21:00,0.0,1.95207,0.00098,405.745,0.027,0.0804,0.0016,139.999,45.000,28759.00338,1.95369,406.138,33.438,45.068,45.000,0.00,0.09,-272.70,-272.74,-9,164,-1,20.2,2.7,-27.5,20.2,4.3,-22.3,5.73,2.34,-17.4,24.9
2015-01-23 00:22:00,0.0,1.95099,0.00098,405.734,0.031,0.0814,0.0021,139.999,45.000,28755.52150,1.95251,406.130,33.437,45.068,45.000,0.00,0.09,-272.70,-272.75,-9,164,-1,20.2,2.7,-27.4,20.2,4.3,-22.3,5.73,2.54,-17.4,24.8
2015-01-23 00:23:00,0.0,1.95136,0.00083,405.731,0.028,0.0796,0.0021,140.002,45.000,28755.26869,1.95287,406.121,33.439,45.068,45.000,0.00,0.09,-272.68,-272.74,-8,164,-1,20.2,2.7,-27.5,20.2,4.3,-22.3,5.73,2.44,-17.4,24.9
2015-01-23 00:24:00,0.0,1.95479,0.00280,405.780,0.048,0.0786,0.0015,140.002,45.000,28758.23466,1.95600,406.160,33.439,45.068,45.000,0.00,0.09,-272.67,-272.75,-8,164,-1,20.2,2.6,-27.7,20.2,4.3,-22.3,5.73,2.24,-17.4,24.9
2015-01-23 00:25:00,0.0,1.96018,0.00053,405.833,0.027,0.0776,0.0018,140.001,45.000,28756.39229,1.96173,406.213,33.438,45.068,45.000,0.00,0.09,-272.69,-272.74,-8,164,-1,20.2,2.6,-27.9,20.2,4.3,-22.4,5.73,2.25,-17.4,24.9
2015-01-23 00:26:00,0.0,1.95815,0.00054,405.803,0.035,0.0779,0.0013,140.000,45.000,28753.75756,1.95969,406.184,33.415,45.068,45.000,0.00,0.09,-272.70,-272.74,-8,164,-1,20.2,2.6,-27.9,20.2,4.3,-22.4,5.73,2.46,-17.4,24.9
2015-01-23 00:27:00,0.0,1.95669,0.00119,405.801,0.022,0.0779,0.0013,140.001,45.000,28754.51028,1.95825,406.181,33.397,45.068,45.000,0.00,0.09,-272.69,-272.75,-9,164,-1,20.2,2.6,-27.8,20.2,4.3,-22.4,5.73,2.49,-17.4,24.9
2015-01-23 00:28:00,0.0,1.95415,0.00112,405.753,0.039,0.0784,0.0022,140.001,45.000,28753.95967,1.95576,406.136,33.398,45.068,45.000,0.00,0.09,-272.68,-272.76,-9,164,-1,20.2,2.6,-27.7,20.2,4.3,-22.4,5.73,2.29,-17.4,24.9
2015-01-23 00:29:00,0.0,1.95266,0.00051,405.740,0.040,0.0803,0.0018,140.004,45.000,28756.56267,1.95425,406.133,33.375,45.068,45.000,0.00,0.09,-272.68,-272.75,-8,164,-1,20.2,2.7,-27.5,20.2,4.3,-22.4,5.73,2.18,-17.4,24.9
2015-01-23 00:30:00,0.0,1.95214,0.00060,405.735,0.030,0.0818,0.0021,139.999,45.000,28758.36054,1.95375,406.135,33.381,45.068,45.000,0.00,0.09,-272.70,-272.74,-8,164,-1,20.2,2.7,-27.4,20.2,4.3,-22.4,5.73,2.36,-17.4,24.9
2015-01-23 00:31:00,0.0,1.95108,0.00036,405.722,0.035,0.0827,0.0018,139.994,45.000,28750.09996,1.95266,406.125,33.380,45.068,45.000,0.00,0.09,-272.69,-272.74,-8,164,-1,20.2,2.8,-27.2,20.2,4.3,-22.4,5.73,2.52,-17.4,24.9
2015-01-23 00:32:00,0.0,1.94971,0.00089,405.711,0.021,0.0834,0.0016,140.000,45.000,28752.57587,1.95139,406.118,33.378,45.068,45.000,0.00,0.09,-272.69,-272.75,-8,164,-1,20.2,2.8,-27.1,20.2,4.3,-22.4,5.73,2.41,-17.4,24.9
2015-01-23 00:33:00,0.0,1.94877,0.00033,405.690,0.026,0.0854,0.0019,140.003,45.000,28746.75829,1.95040,406.108,33.378,45.068,45.000,0.00,0.09,-272.68,-272.76,-9,163,-1,20.2,2.8,-26.9,20.2,4.3,-22.4,5.73,2.22,-17.4,24.8
2015-01-23 00:34:00,0.0,1.94830,0.00051,405.703,0.026,0.0862,0.0016,140.002,45.000,28744.24152,1.94999,406.124,33.383,45.068,45.000,0.00,0.09,-272.69,-272.74,-9,163,-1,20.2,2.9,-26.8,20.2,4.3,-22.4,5.73,2.25,-17.4,24.9
2015-01-23 00:35:00,0.0,1.94822,0.00048,405.709,0.021,0.0870,0.0020,139.999,45.000,28745.79733,1.94985,406.134,33.393,45.068,45.000,0.00,0.09,-272.71,-272.74,-9,163,-1,20.2,2.9,-26.8,20.2,4.3,-22.4,5.73,2.44,-17.4,24.9
2015-01-23 00:36:00,0.0,1.95059,0.00127,405.738,0.039,0.0871,0.0016,139.999,45.000,28742.11477,1.95217,406.163,33.396,45.067,45.000,0.00,0.09,-272.69,-272.74,-8,163,-1,20.2,2.9,-26.6,20.2,4.3,-22.4,5.73,2.53,-17.4,24.9
2015-01-23 00:37:00,0.0,1.94890,0.00119,405.680,0.035,0.0932,0.0029,139.999,45.000,28739.40250,1.95080,406.135,33.375,45.067,45.000,0.00,0.09,-272.68,-272.76,-8,162,-1,20.2,3.1,-26.1,20.2,4.3,-22.4,5.73,2.32,-17.4,24.9
2015-01-23 00:38:00,0.0,1.94687,0.00067,405.632,0.063,0.0986,0.0015,140.000,45.000,28738.05914,1.94882,406.114,33.375,45.067,45.000,0.00,0.09,-272.68,-272.76,-8,162,-1,20.2,3.3,-25.4,20.2,4.3,-22.4,5.73,2.19,-17.4,24.9
2015-01-23 00:39:00,0.0,1.94588,0.00048,405.529,0.035,0.1019,0.0015,139.999,45.000,28743.91329,1.94784,406.027,33.371,45.068,45.000,0.00,0.09,-272.70,-272.74,-9,163,-1,20.2,3.4,-25.0,20.2,4.3,-22.4,5.73,2.31,-17.5,24.9
2015-01-23 00:40:00,0.0,1.94751,0.00132,405.590,0.067,0.1032,0.0020,140.000,45.000,28744.36208,1.94937,406.091,33.350,45.068,45.000,0.00,0.09,-272.69,-272.74,-9,163,-1,20.2,3.4,-24.9,20.2,4.3,-22.4,5.73,2.49,-17.5,24.8
2015-01-23 00:41:00,0.0,1.94918,0.00035,405.712,0.031,0.1002,0.0026,139.999,45.000,28743.32998,1.95112,406.202,33.328,45.068,45.000,0.00,0.09,-272.68,-272.75,-9,163,-1,20.2,3.4,-25.2,20.2,4.3,-22.4,5.73,2.47,-17.4,24.8
2015-01-23 00:42:00,0.0,1.94975,0.00044,405.822,0.040,0.0983,0.0019,139.999,45.000,28738.93039,1.95162,406.301,33.313,45.068,45.000,0.00,0.09,-272.68,-272.76,-8,162,-1,20.2,3.3,-25.4,20.2,4.3,-22.4,5.73,2.26,-17.5,24.8
2015-01-23 00:43:00,0.0,1.95013,0.00067,405.859,0.032,0.0964,0.0020,139.997,45.000,28741.14575,1.95194,406.330,33.314,45.068,45.000,0.00,0.09,-272.68,-272.75,-8,163,-1,20.2,3.2,-25.6,20.2,4.3,-22.4,5.73,2.20,-17.5,24.8
2015-01-23 00:44:00,0.0,1.94922,0.00077,405.723,0.045,0.0935,0.0021,140.001,45.000,28741.51187,1.95112,406.182,33.328,45.068,45.000,0.00,0.09,-272.70,-272.73,-8,163,-1,20.2,3.1,-25.9,20.2,4.3,-22.4,5.73,2.38,-17.4,24.8
2015-01-23 00:45:00,0.0,1.94861,0.00034,405.703,0.038,0.0908,0.0019,140.000,45.000,28740.11368,1.95033,406.147,33.353,45.068,45.000,0.00,0.09,-272.70,-272.74,-8,163,-1,20.2,3.0,-26.3,20.2,4.3,-22.4,5.73,2.51,-17.5,24.8
2015-01-23 00:46:00,0.0,1.94833,0.00030,405.711,0.023,0.0888,0.0024,139.999,45.000,28742.48706,1.95005,406.144,33.374,45.067,45.000,0.00,0.09,-272.69,-272.76,-9,163,-1,20.2,3.0,-26.5,20.2,4.3,-22.4,5.73,2.40,-17.5,24.9
2015-01-23 00:47:00,0.0,1.94794,0.00028,405.677,0.028,0.0875,0.0014,139.998,45.000,28746.28042,1.94961,406.105,33.375,45.067,45.000,0.00,0.09,-272.67,-272.75,-9,164,-1,20.2,2.9,-26.6,20.1,4.3,-22.4,5.73,2.21,-17.4,24.9
2015-01-23 00:48:00,0.0,1.94878,0.00044,405.727,0.047,0.0864,0.0016,139.999,45.000,28743.69127,1.95039,406.147,33.374,45.067,44.999,0.00,0.09,-272.69,-272.74,-8,163,-1,20.2,2.9,-26.7,20.2,4.3,-22.4,5.73,2.24,-17.4,24.9
2015-01-23 00:49:00,0.0,1.95031,0.00070,405.821,0.047,0.0863,0.0014,139.998,45.000,28739.48669,1.95191,406.240,33.375,45.067,45.000,0.00,0.09,-272.70,-272.74,-8,163,-1,20.2,2.9,-26.8,20.2,4.3,-22.4,5.73,2.44,-17.5,24.9
2015-01-23 00:50:00,0.0,1.95072,0.00102,405.853,0.070,0.0857,0.0011,139.996,45.000,28737.89308,1.95246,406.274,33.375,45.067,45.000,0.00,0.09,-272.69,-272.74,-8,162,-1,20.2,2.9,-26.8,20.2,4.3,-22.4,5.73,2.50,-17.5,24.9
2015-01-23 00:51:00,0.0,1.94847,0.00063,405.696,0.053,0.0862,0.0017,140.001,45.000,28741.29093,1.95013,406.119,33.374,45.067,45.000,0.00,0.09,-272.67,-272.76,-8,162,-1,20.2,2.9,-26.8,20.1,4.3,-22.4,5.73,2.34,-17.5,24.9
2015-01-23 00:52:00,0.0,1.94802,0.00040,405.660,0.032,0.0867,0.0015,139.998,45.000,28735.89974,1.94967,406.084,33.375,45.067,45.000,0.00,0.09,-272.69,-272.75,-9,162,-1,20.1,2.9,-26.7,20.2,4.3,-22.4,5.73,2.20,-17.5,24.9
2015-01-23 00:53:00,0.0,1.94856,0.00036,405.672,0.024,0.0874,0.0012,139.998,45.000,28734.32291,1.95024,406.099,33.383,45.067,45.000,0.00,0.09,-272.70,-272.73,-9,162,-1,20.2,2.9,-26.7,20.2,4.3,-22.4,5.73,2.29,-17.5,24.9
2015-01-23 00:54:00,0.0,1.94871,0.00045,405.683,0.035,0.0883,0.0015,140.002,45.000,28737.16572,1.95041,406.113,33.378,45.067,45.000,0.00,0.09,-272.70,-272.74,-9,163,-1,20.1,3.0,-26.6,20.1,4.3,-22.4,5.73,2.48,-17.5,24.8
2015-01-23 00:55:00,0.0,1.94754,0.00045,405.637,0.038,0.0881,0.0014,140.004,45.000,28740.66653,1.94927,406.068,33.377,45.067,45.000,0.00,0.09,-272.69,-272.75,-8,163,-1,20.2,3.0,-26.5,20.1,4.3,-22.4,5.73,2.47,-17.5,24.9
2015-01-23 00:56:00,0.0,1.94721,0.00034,405.634,0.022,0.0887,0.0015,139.998,45.000,28738.76652,1.94891,406.067,33.370,45.067,45.000,0.00,0.09,-272.67,-272.75,-8,163,-1,20.1,3.0,-26.4,20.2,4.3,-22.4,5.73,2.27,-17.5,24.9
2015-01-23 00:57:00,0.0,1.94659,0.00038,405.596,0.034,0.0906,0.0017,140.000,45.000,28734.38289,1.94836,406.040,33.345,45.067,45.000,0.00,0.09,-272.69,-272.74,-8,162,-1,20.1,3.0,-26.3,20.1,4.3,-22.4,5.73,2.20,-17.5,24.9
2015-01-23 00:58:00,0.0,1.94671,0.00042,405.600,0.023,0.0926,0.0012,139.997,45.000,28737.08516,1.94848,406.051,33.321,45.068,45.000,0.00,0.09,-272.69,-272.74,-8,162,-1,20.1,3.1,-26.1,20.1,4.3,-22.4,5.73,2.35,-17.5,24.9
2015-01-23 00:59:00,0.0,1.94629,0.00037,405.573,0.029,0.0938,0.0011,139.997,45.000,28734.62114,1.94807,406.032,33.314,45.068,45.000,0.00,0.09,-272.70,-272.75,-9,162,-1,20.1,3.1,-25.9,20.1,4.3,-22.4,5.73,2.50,-17.5,24.8
2015-01-23 01:00:00,0.0,1.94751,0.00037,405.624,0.028,0.0917,0.0022,140.001,45.000,28735.28862,1.94927,406.071,33.315,45.068,45.000,0.00,0.09,-272.68,-272.75,-9,162,-1,20.1,3.1,-26.1,20.1,4.3,-22.4,5.73,2.44,-17.5,24.8
2015-01-23 01:01:00,0.0,1.94664,0.00054,405.597,0.033,0.0890,0.0013,140.000,45.000,28735.17979,1.94837,406.032,33.318,45.068,45.000,0.00,0.09,-272.68,-272.76,-8,163,-1,20.1,3.0,-26.5,20.1,4.3,-22.4,5.73,2.25,-17.5,24.9
2015-01-23 01:02:00,0.0,1.94722,0.00066,405.623,0.044,0.0888,0.0017,140.000,45.000,28735.47332,1.94888,406.055,33.334,45.068,45.000,0.00,0.09,-272.69,-272.76,-8,163,-1,20.1,3.0,-26.5,20.1,4.3,-22.4,5.73,2.21,-17.5,24.9
2015-01-23 01:03:00,0.0,1.94754,0.00032,405.641,0.037,0.0878,0.0015,139.997,45.000,28736.45579,1.94922,406.069,33.353,45.068,45.000,0.00,0.09,-272.70,-272.73,-8,162,-1,20.1,3.0,-26.5,20.1,4.3,-22.4,5.73,2.38,-17.5,24.9
2015-01-23 01:04:00,0.0,1.94942,0.00073,405.743,0.040,0.0891,0.0015,139.999,45.000,28739.35767,1.95105,406.177,33.337,45.067,45.000,0.00,0.09,-272.69,-272.74,-8,162,-1,20.1,3.0,-26.5,20.1,4.3,-22.4,5.73,2.50,-17.5,24.9
2015-01-23 01:05:00,0.0,1.95187,0.00063,405.893,0.068,0.0872,0.0015,140.000,45.000,28741.67038,1.95348,406.316,33.338,45.067,45.000,0.00,0.09,-272.68,-272.76,-9,162,-1,20.1,2.9,-26.6,20.1,4.3,-22.4,5.73,2.41,-17.5,24.9
2015-01-23 01:06:00,0.0,1.95166,0.00096,405.929,0.065,0.0864,0.0014,139.998,45.000,28738.06399,1.95340,406.353,33.369,45.067,45.000,0.00,0.09,-272.69,-272.75,-9,163,-1,20.1,2.9,-26.6,20.1,4.3,-22.4,5.73,2.22,-17.5,24.9
2015-01-23 01:07:00,0.0,1.94917,0.00061,405.738,0.032,0.0871,0.0018,140.000,45.000,28739.79407,1.95084,406.165,33.358,45.067,45.000,0.00,0.09,-272.68,-272.74,-9,163,-1,20.1,2.9,-26.7,20.1,4.3,-22.5,5.73,2.23,-17.5,24.9
2015-01-23 01:08:00,0.0,1.94968,0.00049,405.772,0.051,0.0869,0.0018,140.001,45.000,28736.35837,1.95133,406.195,33.364,45.067,45.000,0.00,0.09,-272.70,-272.73,-8,162,-1,20.1,2.9,-26.7,20.2,4.3,-22.4,5.73,2.42,-17.5,25.0
2015-01-23 01:09:00,0.0,1.95187,0.00082,405.952,0.074,0.0862,0.0018,140.002,45.000,28735.87799,1.95344,406.369,33.360,45.067,45.000,0.00,0.09,-272.69,-272.75,-8,162,-1,20.1,2.9,-26.8,20.1,4.3,-22.5,5.73,2.51,-17.5,25.0
2015-01-23 01:10:00,0.0,1.95375,0.00122,406.101,0.060,0.0839,0.0023,140.000,45.000,28732.96109,1.95527,406.510,33.374,45.067,45.000,0.00,0.09,-272.69,-272.75,-8,161,-1,20.1,2.9,-27.0,20.1,4.3,-22.5,5.73,2.37,-17.5,25.0
2015-01-23 01:11:00,0.0,1.95557,0.00044,406.201,0.047,0.0835,0.0014,139.997,45.000,28732.85925,1.95716,406.608,33.375,45.067,45.000,0.00,0.09,-272.68,-272.75,-8,162,-1,20.1,2.8,-27.1,20.1,4.3,-22.5,5.73,2.21,-17.5,24.9
2015-01-23 01:12:00,0.0,1.95532,0.00066,406.246,0.036,0.0823,0.0016,140.000,45.000,28738.49532,1.95691,406.649,33.380,45.067,45.000,0.00,0.09,-272.69,-272.75,-9,162,-1,20.1,2.8,-27.2,20.1,4.3,-22.5,5.73,2.26,-17.5,24.9
2015-01-23 01:13:00,0.0,1.95813,0.00165,406.211,0.040,0.0818,0.0015,139.998,45.000,28740.96940,1.95955,406.612,33.400,45.067,45.000,0.00,0.09,-272.70,-272.74,-9,163,-1,20.1,2.8,-27.4,20.1,4.3,-22.5,5.73,2.44,-17.5,24.8
2015-01-23 01:14:00,0.0,1.96093,0.00039,406.144,0.038,0.0820,0.0014,140.002,45.000,28740.06541,1.96250,406.544,33.391,45.067,45.000,0.00,0.09,-272.69,-272.75,-9,163,-1,20.1,2.7,-27.5,20.1,4.3,-22.5,5.73,2.50,-17.5,24.8
2015-01-23 01:15:00,0.0,1.95603,0.00251,406.137,0.078,0.0805,0.0020,140.000,45.000,28739.01476,1.95785,406.534,33.376,45.067,45.000,0.00,0.09,-272.68,-272.76,-8,163,-1,20.1,2.7,-27.5,20.1,4.3,-22.5,5.73,2.35,-17.5,24.8
2015-01-23 01:16:00,0.0,1.95797,0.00230,406.113,0.045,0.0801,0.0028,140.002,45.000,28737.97843,1.95926,406.502,33.375,45.067,45.000,0.00,0.09,-272.69,-272.76,-8,162,-1,20.1,2.7,-27.6,20.1,4.3,-22.5,5.73,2.20,-17.5,24.8
2015-01-23 01:17:00,0.0,1.95667,0.00221,405.969,0.112,0.0791,0.0012,139.997,45.000,28735.68028,1.95837,406.362,33.375,45.068,45.000,0.00,0.09,-272.69,-272.74,-8,162,-1,20.1,2.7,-27.7,20.1,4.3,-22.5,5.73,2.27,-17.5,24.8
2015-01-23 01:18:00,0.0,1.95507,0.00055,405.832,0.029,0.0782,0.0016,140.002,45.000,28737.65453,1.95656,406.212,33.376,45.067,45.000,0.00,0.09,-272.69,-272.74,-8,162,-1,20.1,2.7,-27.8,20.1,4.3,-22.5,5.73,2.47,-17.5,24.9
2015-01-23 01:19:00,0.0,1.95620,0.00035,405.866,0.026,0.0779,0.0022,140.001,45.000,28738.57420,1.95771,406.247,33.377,45.068,45.000,0.00,0.09,-272.69,-272.75,-9,163,-1,20.1,2.6,-27.8,20.1,4.3,-22.5,5.73,2.56,-17.5,24.9
2015-01-23 01:20:00,0.0,1.95787,0.00143,405.930,0.069,0.0766,0.0015,140.000,45.000,28740.89958,1.95918,406.302,33.375,45.068,45.000,0.00,0.09,-272.68,-272.75,-9,163,-1,20.1,2.6,-27.9,20.1,4.3,-22.5,5.73,2.32,-17.5,24.8
2015-01-23 01:21:00,0.0,1.95945,0.00128,405.994,0.076,0.0757,0.0016,140.001,45.000,28741.76012,1.96088,406.362,33.374,45.067,45.000,0.00,0.09,-272.68,-272.75,-8,163,-1,20.1,2.6,-28.1,20.1,4.3,-22.5,5.73,2.19,-17.5,24.8
2015-01-23 01:22:00,0.0,1.95991,0.00102,406.100,0.047,0.0766,0.0016,139.998,45.000,28743.49490,1.96152,406.474,33.371,45.067,45.000,0.00,0.09,-272.70,-272.74,-8,163,-1,20.1,2.6,-28.0,20.1,4.3,-22.5,5.73,2.32,-17.5,24.8
2015-01-23 01:23:00,0.0,1.95717,0.00090,406.215,0.043,0.0769,0.0017,140.001,45.000,28741.22591,1.95868,406.589,33.369,45.067,45.000,0.00,0.09,-272.70,-272.74,-8,163,-1,20.1,2.6,-28.0,20.1,4.3,-22.5,5.73,2.49,-17.5,24.9
2015-01-23 01:24:00,0.0,1.95690,0.00045,406.216,0.024,0.0774,0.0017,139.999,45.000,28736.42455,1.95840,406.594,33.344,45.067,45.000,0.00,0.09,-272.69,-272.75,-8,162,-1,20.1,2.6,-27.9,20.1,4.3,-22.5,5.73,2.45,-17.5,24.8
2015-01-23 01:25:00,0.0,1.95770,0.00052,406.198,0.031,0.0781,0.0020,139.999,45.000,28738.11980,1.95918,406.580,33.318,45.068,45.000,0.00,0.09,-272.68,-272.76,-9,163,-1,20.1,2.6,-27.9,20.1,4.3,-22.5,5.73,2.26,-17.5,24.8
2015-01-23 01:26:00,0.0,1.95729,0.00051,406.180,0.026,0.0770,0.0020,140.001,45.000,28745.24281,1.95883,406.556,33.314,45.068,45.000,0.00,0.09,-272.69,-272.75,-9,163,-1,20.1,2.6,-27.9,20.1,4.3,-22.5,5.73,2.20,-17.5,24.9
2015-01-23 01:27:00,0.0,1.95646,0.00030,406.195,0.036,0.0770,0.0015,140.000,45.000,28748.23560,1.95794,406.571,33.313,45.068,45.000,0.00,0.09,-272.69,-272.74,-9,164,-1,20.0,2.6,-27.9,20.1,4.3,-22.5,5.73,2.39,-17.5,24.9
2015-01-23 01:28:00,0.0,1.95616,0.00042,406.231,0.033,0.0776,0.0015,140.000,45.000,28750.12708,1.95767,406.612,33.311,45.068,45.000,0.00,0.09,-272.70,-272.74,-8,164,-1,20.0,2.7,-27.8,20.1,4.3,-22.5,5.73,2.53,-17.5,24.9
2015-01-23 01:29:00,0.0,1.95617,0.00040,406.137,0.029,0.0774,0.0015,140.001,45.000,28751.16225,1.95767,406.516,33.299,45.068,45.000,0.00,0.09,-272.69,-272.76,-7,164,-1,20.0,2.7,-27.8,20.1,4.3,-22.5,5.73,2.35,-17.5,24.9
2015-01-23 01:30:00,0.0,1.95378,0.00097,406.012,0.085,0.0786,0.0016,140.000,45.000,28752.67506,1.95538,406.398,33.279,45.068,45.000,0.00,0.09,-272.69,-272.75,-8,164,-1,20.0,2.7,-27.8,20.1,4.3,-22.5,5.73,2.17,-17.5,24.9
2015-01-23 01:31:00,0.0,1.95257,0.00137,405.896,0.058,0.0777,0.0016,139.999,45.000,28755.26514,1.95415,406.277,33.266,45.068,45.000,0.00,0.09,-272.69,-272.74,-9,164,-1,20.0,2.7,-27.8,20.1,4.3,-22.6,5.73,2.32,-17.5,24.9
2015-01-23 01:32:00,0.0,1.95207,0.00063,405.885,0.034,0.0786,0.0019,139.996,45.000,28758.60933,1.95356,406.268,33.284,45.068,45.000,0.00,0.09,-272.70,-272.75,-9,165,-1,19.9,2.7,-27.8,20.1,4.3,-22.6,5.73,2.52,-17.5,24.9
2015-01-23 01:33:00,0.0,1.95228,0.00047,405.986,0.042,0.0798,0.0014,140.000,45.000,28762.01334,1.95377,406.375,33.310,45.068,45.000,0.00,0.09,-272.68,-272.75,-8,165,-1,20.0,2.7,-27.6,20.1,4.3,-22.6,5.73,2.41,-17.5,24.9
2015-01-23 01:34:00,0.0,1.95171,0.00074,405.947,0.029,0.0799,0.0016,139.996,45.000,28766.08120,1.95330,406.336,33.313,45.068,45.000,0.00,0.09,-272.68,-272.75,-8,166,-1,20.0,2.7,-27.5,20.1,4.3,-22.6,5.73,2.19,-17.5,24.9
2015-01-23 01:35:00,0.0,1.95153,0.00028,405.919,0.036,0.0801,0.0017,139.999,45.000,28765.99576,1.95306,406.312,33.314,45.068,45.000,0.00,0.09,-272.69,-272.74,-7,166,-1,20.0,2.7,-27.5,20.1,4.3,-22.5,5.73,2.25,-17.5,24.8
2015-01-23 01:36:00,0.0,1.95167,0.00035,405.900,0.039,0.0796,0.0014,140.000,45.000,28765.97769,1.95319,406.289,33.315,45.067,45.000,0.00,0.09,-272.71,-272.74,-8,166,-1,20.0,2.7,-27.6,20.1,4.3,-22.5,5.73,2.47,-17.5,24.8
2015-01-23 01:37:00,0.0,1.95217,0.00046,405.905,0.027,0.0794,0.0016,139.998,45.000,28767.07339,1.95370,406.292,33.327,45.067,45.000,0.00,0.09,-272.69,-272.75,-8,166,-1,20.0,2.7,-27.6,20.1,4.3,-22.6,5.73,2.49,-17.5,24.9
2015-01-23 01:38:00,0.0,1.95131,0.00033,405.928,0.030,0.0797,0.0020,139.998,45.000,28766.28551,1.95285,406.319,33.316,45.067,45.000,0.00,0.09,-272.67,-272.75,-9,166,-1,20.0,2.7,-27.5,20.1,4.3,-22.6,5.73,2.28,-17.5,24.8
2015-01-23 01:39:00,0.0,1.95166,0.00031,405.917,0.035,0.0797,0.0014,140.001,45.000,28762.75226,1.95320,406.305,33.315,45.067,45.000,0.00,0.09,-272.69,-272.75,-8,165,-1,20.1,2.7,-27.5,20.1,4.3,-22.6,5.73,2.18,-17.5,24.9
2015-01-23 01:40:00,0.0,1.95078,0.00059,405.909,0.028,0.0811,0.0014,139.999,45.000,28762.64704,1.95238,406.306,33.312,45.067,45.000,0.00,0.09,-272.71,-272.74,-8,166,-1,20.0,2.8,-27.4,20.1,4.3,-22.6,5.73,2.37,-17.5,25.0
2015-01-23 01:41:00,0.0,1.94991,0.00048,405.842,0.037,0.0818,0.0016,140.002,45.000,28762.30040,1.95150,406.244,33.313,45.067,45.000,0.00,0.09,-272.70,-272.74,-7,165,-1,20.0,2.8,-27.3,20.1,4.3,-22.5,5.73,2.53,-17.5,25.0
2015-01-23 01:42:00,0.0,1.94885,0.00052,405.807,0.023,0.0830,0.0014,140.001,45.000,28762.42161,1.95048,406.213,33.308,45.067,45.000,0.00,0.09,-272.67,-272.76,-8,165,-1,20.0,2.8,-27.1,20.1,4.3,-22.5,5.73,2.37,-17.5,24.9
2015-01-23 01:43:00,0.0,1.94886,0.00036,405.788,0.029,0.0830,0.0015,139.996,45.000,28758.56682,1.95043,406.192,33.310,45.067,45.000,0.00,0.09,-272.69,-272.76,-9,165,-1,20.0,2.9,-27.0,20.1,4.3,-22.6,5.73,2.18,-17.5,24.9
2015-01-23 01:44:00,0.0,1.94917,0.00043,405.787,0.029,0.0836,0.0017,139.999,45.000,28761.14693,1.95078,406.197,33.312,45.067,45.000,0.00,0.09,-272.69,-272.74,-9,165,-1,20.0,2.8,-27.1,20.1,4.3,-22.6,5.73,2.28,-17.5,24.9
2015-01-23 01:45:00,0.0,1.94880,0.00047,405.780,0.035,0.0836,0.0011,139.998,45.000,28760.38476,1.95043,406.188,33.311,45.068,45.000,0.00,0.09,-272.69,-272.74,-8,166,-1,20.0,2.8,-27.1,20.1,4.3,-22.6,5.73,2.51,-17.6,24.9
2015-01-23 01:46:00,0.0,1.94894,0.00062,405.801,0.046,0.0841,0.0016,139.997,45.000,28755.58379,1.95049,406.211,33.272,45.068,45.000,0.00,0.09,-272.68,-272.76,-8,165,-1,20.0,2.9,-27.1,20.1,4.3,-22.6,5.73,2.45,-17.5,25.0